| time (UTC) | temp F | wind direction | speed MPH | gust MPH | rain 1hr in | rain 24hr in | rain mn in | humidity % | barometer mb |
| 20260906104556 | 65 | 0 | 0.0 | 1.0 | 0.00 | 0.00 | 0.00 | 96 | 1016.3 |
| 20260906103054 | 65 | 0 | 0.0 | 1.0 | 0.00 | 0.00 | 0.00 | 96 | 1016.2 |
| 20260906101554 | 65 | 0 | 0.0 | 0.0 | 0.00 | 0.00 | 0.00 | 96 | 1016.3 |
| 20260906100058 | 65 | 0 | 0.0 | 1.0 | 0.00 | 0.00 | 0.00 | 96 | 1016.1 |
| 20260906094555 | 65 | 0 | 0.0 | 0.0 | 0.00 | 0.00 | 0.00 | 96 | 1016.1 |
| 20260906093050 | 65 | 0 | 0.0 | 2.0 | 0.00 | 0.00 | 0.00 | 96 | 1016.1 |
| 20260906091558 | 65 | 284 | 0.0 | 1.0 | 0.00 | 0.00 | 0.00 | 97 | 1016.0 |
| 20260906090107 | 64 | 0 | 0.0 | 1.0 | 0.00 | 0.00 | 0.00 | 96 | 1015.6 |
| 20260906084602 | 64 | 0 | 0.0 | 0.0 | 0.00 | 0.00 | 0.00 | 96 | 1015.9 |
| 20260906083100 | 64 | 0 | 0.0 | 0.0 | 0.00 | 0.00 | 0.00 | 96 | 1015.8 |
| 20260906081620 | 64 | 0 | 0.0 | 1.0 | 0.00 | 0.00 | 0.00 | 96 | 1015.8 |
| 20260906080059 | 64 | 0 | 0.0 | 1.0 | 0.00 | 0.00 | 0.00 | 96 | 1016.1 |
| 20260906074610 | 64 | 0 | 0.0 | 0.0 | 0.00 | 0.00 | 0.00 | 96 | 1015.9 |
| 20260906073101 | 65 | 0 | 0.0 | 2.0 | 0.00 | 0.00 | 0.00 | 96 | 1016.2 |
| 20260906071555 | 65 | 0 | 0.0 | 2.0 | 0.00 | 0.00 | 0.00 | 96 | 1016.2 |
| 20260906070107 | 65 | 266 | 0.0 | 2.0 | 0.00 | 0.00 | 0.00 | 96 | 1016.2 |
| 20260906064556 | 65 | 0 | 0.0 | 0.0 | 0.00 | 0.00 | 0.00 | 95 | 1016.2 |
| 20260906063058 | 65 | 0 | 0.0 | 0.0 | 0.00 | 0.00 | 0.00 | 95 | 1016.1 |
| 20260906061610 | 65 | 0 | 0.0 | 0.0 | 0.00 | 0.00 | 0.00 | 95 | 1016.3 |
| 20260906060107 | 65 | 0 | 0.0 | 0.0 | 0.00 | 0.00 | 0.00 | 95 | 1016.7 |
| 20260906054605 | 66 | 0 | 0.0 | 1.0 | 0.00 | 0.00 | 0.00 | 95 | 1016.7 |
| 20260906053053 | 66 | 0 | 0.0 | 1.0 | 0.00 | 0.00 | 0.00 | 95 | 1016.7 |
| 20260906051606 | 66 | 0 | 0.0 | 1.0 | 0.00 | 0.00 | 0.00 | 95 | 1016.6 |
| 20260906050108 | 66 | 0 | 0.0 | 1.0 | 0.00 | 0.00 | 0.00 | 95 | 1016.8 |
| 20260906044557 | 66 | 0 | 0.0 | 2.0 | 0.00 | 0.00 | 0.00 | 94 | 1016.7 |
| 20260906043100 | 66 | 0 | 0.0 | 1.0 | 0.00 | 0.00 | 0.00 | 94 | 1016.5 |
| 20260906041601 | 66 | 0 | 0.0 | 0.0 | 0.00 | 0.00 | 0.00 | 94 | 1016.4 |
| 20260906040057 | 67 | 0 | 0.0 | 1.0 | 0.00 | 0.00 | 0.00 | 93 | 1016.7 |
| 20260906034600 | 67 | 0 | 0.0 | 1.0 | 0.00 | 0.00 | 0.00 | 93 | 1016.7 |
| 20260906033100 | 68 | 0 | 0.0 | 1.0 | 0.00 | 0.00 | 0.00 | 92 | 1017.0 |
| 20260906031604 | 68 | 0 | 0.0 | 1.0 | 0.00 | 0.00 | 0.00 | 92 | 1017.1 |
| 20260906030056 | 68 | 0 | 0.0 | 0.0 | 0.00 | 0.00 | 0.00 | 91 | 1017.3 |
| 20260906024552 | 68 | 265 | 0.0 | 2.0 | 0.00 | 0.00 | 0.00 | 92 | 1017.6 |
| 20260906023102 | 68 | 0 | 0.0 | 0.0 | 0.00 | 0.00 | 0.00 | 91 | 1017.5 |
| 20260906021607 | 68 | 0 | 0.0 | 0.0 | 0.00 | 0.00 | 0.00 | 90 | 1017.6 |
| 20260906020103 | 69 | 0 | 0.0 | 0.0 | 0.00 | 0.00 | 0.00 | 89 | 1017.5 |
| 20260906014553 | 70 | 0 | 0.0 | 0.0 | 0.00 | 0.00 | 0.00 | 87 | 1017.4 |
| 20260906013055 | 70 | 0 | 0.0 | 0.0 | 0.00 | 0.00 | 0.00 | 87 | 1017.3 |
| 20260906011555 | 70 | 0 | 0.0 | 0.0 | 0.00 | 0.00 | 0.00 | 85 | 1017.1 |
| 20260906010054 | 71 | 0 | 0.0 | 2.0 | 0.00 | 0.00 | 0.00 | 83 | 1016.8 |
| 20260906004601 | 72 | 0 | 0.0 | 2.0 | 0.00 | 0.00 | 0.00 | 82 | 1016.6 |
| 20260906003056 | 72 | 360 | 0.0 | 1.0 | 0.00 | 0.00 | 0.00 | 80 | 1016.5 |
| 20260906001554 | 73 | 0 | 0.0 | 2.0 | 0.00 | 0.00 | 0.00 | 79 | 1016.4 |
| 20260906000053 | 73 | 0 | 0.0 | 2.0 | 0.00 | 0.00 | 0.00 | 78 | 1016.4 |
| 20260905234558 | 74 | 360 | 0.0 | 4.0 | 0.00 | 0.00 | 0.00 | 76 | 1016.2 |
| 20260905233053 | 74 | 0 | 0.0 | 4.0 | 0.00 | 0.00 | 0.00 | 75 | 1016.2 |
| 20260905231553 | 76 | 0 | 0.0 | 4.0 | 0.00 | 0.00 | 0.00 | 73 | 1016.2 |
| 20260905230059 | 76 | 360 | 0.0 | 5.0 | 0.00 | 0.00 | 0.00 | 72 | 1016.4 |
| 20260905224603 | 77 | 360 | 1.0 | 5.0 | 0.00 | 0.00 | 0.00 | 70 | 1016.3 |
| 20260905223101 | 78 | 153 | 0.0 | 4.0 | 0.00 | 0.00 | 0.00 | 70 | 1016.3 |
| 20260905221601 | 78 | 135 | 0.0 | 3.0 | 0.00 | 0.00 | 0.00 | 69 | 1016.4 |
| 20260905220105 | 80 | 126 | 0.0 | 2.0 | 0.00 | 0.00 | 0.00 | 67 | 1016.2 |
| 20260905214557 | 81 | 0 | 0.0 | 3.0 | 0.00 | 0.00 | 0.00 | 65 | 1015.9 |
| 20260905213053 | 81 | 120 | 1.0 | 4.0 | 0.00 | 0.00 | 0.00 | 62 | 1015.8 |
| 20260905211621 | 81 | 205 | 1.0 | 8.0 | 0.00 | 0.00 | 0.00 | 64 | 1015.7 |
| 20260905210113 | 81 | 92 | 1.0 | 7.0 | 0.00 | 0.00 | 0.00 | 64 | 1015.6 |
| 20260905204558 | 81 | 168 | 2.0 | 4.0 | 0.00 | 0.00 | 0.00 | 62 | 1015.8 |
| 20260905203113 | 81 | 130 | 1.0 | 4.0 | 0.00 | 0.00 | 0.00 | 66 | 1015.5 |
| 20260905201553 | 80 | 0 | 1.0 | 5.0 | 0.00 | 0.00 | 0.00 | 66 | 1015.5 |
| 20260905200057 | 81 | 164 | 1.0 | 8.0 | 0.00 | 0.00 | 0.00 | 64 | 1015.7 |
| 20260905194557 | 82 | 153 | 0.0 | 4.0 | 0.00 | 0.00 | 0.00 | 65 | 1015.7 |
| 20260905193056 | 81 | 69 | 2.0 | 8.0 | 0.00 | 0.00 | 0.00 | 65 | 1015.9 |
| 20260905191550 | 81 | 126 | 1.0 | 8.0 | 0.00 | 0.00 | 0.00 | 61 | 1016.1 |
| 20260905190054 | 80 | 77 | 1.0 | 10.0 | 0.00 | 0.00 | 0.00 | 67 | 1016.3 |
| 20260905184603 | 80 | 80 | 2.0 | 6.0 | 0.00 | 0.00 | 0.00 | 72 | 1016.6 |
| 20260905183058 | 78 | 117 | 2.0 | 7.0 | 0.00 | 0.00 | 0.00 | 71 | 1016.8 |
| 20260905181612 | 78 | 0 | 1.0 | 3.0 | 0.00 | 0.00 | 0.00 | 74 | 1017.0 |
| 20260905180104 | 77 | 188 | 1.0 | 6.0 | 0.00 | 0.00 | 0.00 | 73 | 1016.9 |
| 20260905174555 | 76 | 0 | 0.0 | 4.0 | 0.00 | 0.00 | 0.00 | 76 | 1016.9 |
| 20260905173100 | 76 | 0 | 1.0 | 6.0 | 0.00 | 0.00 | 0.00 | 80 | 1017.1 |
| 20260905171557 | 74 | 275 | 1.0 | 4.0 | 0.00 | 0.00 | 0.00 | 80 | 1017.1 |
| 20260905170056 | 72 | 280 | 1.0 | 4.0 | 0.00 | 0.00 | 0.00 | 88 | 1017.5 |
| 20260905164603 | 71 | 0 | 0.0 | 2.0 | 0.00 | 0.00 | 0.00 | 90 | 1018.5 |
| 20260905163058 | 71 | 0 | 0.0 | 3.0 | 0.00 | 0.00 | 0.00 | 90 | 1018.8 |
| 20260905161554 | 71 | 0 | 0.0 | 1.0 | 0.00 | 0.00 | 0.00 | 90 | 1019.4 |
| 20260905160136 | 72 | 0 | 0.0 | 2.0 | 0.00 | 0.00 | 0.00 | 89 | 1019.4 |
| 20260905154604 | 72 | 0 | 0.0 | 2.0 | 0.00 | 0.00 | 0.00 | 88 | 1019.3 |
| 20260905153104 | 73 | 360 | 0.0 | 3.0 | 0.00 | 0.00 | 0.00 | 86 | 1019.6 |
| 20260905151602 | 74 | 360 | 1.0 | 6.0 | 0.00 | 0.00 | 0.00 | 84 | 1019.6 |
| 20260905150103 | 75 | 0 | 1.0 | 6.0 | 0.00 | 0.00 | 0.00 | 84 | 1019.5 |
| 20260905144601 | 77 | 95 | 1.0 | 3.0 | 0.00 | 0.00 | 0.00 | 85 | 1018.9 |
| 20260905143108 | 76 | 97 | 0.0 | 3.0 | 0.00 | 0.00 | 0.00 | 86 | 1018.2 |
| 20260905141558 | 76 | 0 | 0.0 | 3.0 | 0.00 | 0.00 | 0.00 | 86 | 1018.1 |
| 20260905140100 | 75 | 0 | 0.0 | 2.0 | 0.00 | 0.00 | 0.00 | 86 | 1018.3 |
| 20260905134551 | 75 | 0 | 0.0 | 2.0 | 0.00 | 0.00 | 0.00 | 87 | 1018.3 |
| 20260905133100 | 73 | 0 | 0.0 | 3.0 | 0.00 | 0.00 | 0.00 | 89 | 1018.5 |
| 20260905131603 | 72 | 0 | 0.0 | 3.0 | 0.00 | 0.00 | 0.00 | 90 | 1018.3 |
| 20260905130052 | 70 | 0 | 0.0 | 3.0 | 0.00 | 0.00 | 0.00 | 94 | 1018.4 |
| 20260905124554 | 69 | 0 | 0.0 | 3.0 | 0.00 | 0.00 | 0.00 | 96 | 1018.4 |
| 20260905123100 | 67 | 0 | 0.0 | 0.0 | 0.00 | 0.00 | 0.00 | 97 | 1018.4 |
| 20260905121556 | 66 | 0 | 0.0 | 1.0 | 0.00 | 0.00 | 0.00 | 97 | 1018.1 |
| 20260905120114 | 65 | 0 | 0.0 | 1.0 | 0.00 | 0.00 | 0.00 | 96 | 1018.0 |
| 20260905114558 | 65 | 0 | 0.0 | 2.0 | 0.00 | 0.00 | 0.00 | 97 | 1018.2 |
| 20260905113054 | 64 | 0 | 0.0 | 1.0 | 0.00 | 0.00 | 0.00 | 96 | 1018.2 |
| 20260905111607 | 64 | 267 | 1.0 | 2.0 | 0.00 | 0.00 | 0.00 | 96 | 1017.9 |
| 20260905110057 | 64 | 0 | 0.0 | 1.0 | 0.00 | 0.00 | 0.00 | 96 | 1017.8 |